Home   Weather   Norwalk   Past weeks

Flag for USA Past Weather in Norwalk, California, USA — Yesterday and Last 2 Weeks

Now
60 °F

Sunny.


Feels Like: 60 °F
Forecast: 48 / 65 °F
Wind: 6 mph from Southeast

Location: Fullerton Municipal Airport

Current Time: Dec 2, 2016 at 10:12:29 am

Latest Report: Dec 2, 2016 at 8:53 am


Visibility: 10 mi

Pressure: 30.01 "Hg

Humidity: 36%

Dew Point: 33 °F

Location of NorwalkLocation

Past Weather in Norwalk — Graph

°F

Norwalk Temperature Yesterday

Maximum temperature yesterday: 67 °F (at 1:53 pm)
Minimum temperature yesterday: 50 °F (at 12:53 am)
Average temperature yesterday: 57 °F

High & Low Weather Summary for the Past Weeks

 TemperatureHumidityPressure
High83 °F (Nov 24, 1:53 pm)93% (Nov 20, 6:00 pm)30.16 "Hg (Nov 20, 6:00 pm)
Low43 °F (Nov 26, 6:53 am)4% (Nov 18, 10:53 am)29.82 "Hg (Nov 28, 3:53 pm)
Average59 °F56%30.01 "Hg
* Reported Nov 17 8:53 am — Dec 2 8:53 am, Norwalk, Weather by CustomWeather, © 2016

Note: Actual official high and low records may vary slightly from our data, if they occured in-between our weather recording intervals... More about our weather records

Advertising

Norwalk Weather History for the Previous 24 Hours

Scroll right to see more
 ConditionsComfort  
Time TempWeatherWind HumidityBarometerVisibility
8:53 am
Fri, Dec 2
60 °FSunny.6 mph36%30.01 "Hg10 mi
7:53 am52 °FSunny.No wind50%30.01 "Hg10 mi
6:53 am45 °FSunny.No wind53%29.99 "Hg8 mi
5:53 am47 °FClear.No wind54%29.97 "Hg9 mi
4:53 am48 °FClear.3 mph54%29.94 "Hg9 mi
3:53 am48 °FClear.6 mph54%29.94 "Hg7 mi
2:53 am48 °FClear.No wind56%29.93 "Hg8 mi
1:53 am50 °FClear.No wind54%29.94 "Hg8 mi
12:53 am50 °FClear.No wind57%29.93 "Hg9 mi
11:53 pm
Thu, Dec 1
53 °FClear.No wind55%29.94 "Hg10 mi
10:53 pm54 °FPassing clouds.No wind49%29.94 "Hg10 mi
9:53 pm54 °FOvercast.No wind49%29.94 "Hg10 mi
8:53 pm55 °FPassing clouds.No wind47%29.94 "Hg10 mi
7:53 pm57 °FClear.3 mph47%29.93 "Hg10 mi
6:53 pm58 °FClear.No wind50%29.94 "Hg10 mi
5:53 pm60 °FPassing clouds.No wind49%29.92 "Hg10 mi
4:53 pm61 °FPassing clouds.5 mph44%29.90 "Hg10 mi
3:53 pm66 °FPassing clouds.3 mph36%29.88 "Hg10 mi
2:53 pm67 °FSunny.No wind37%29.88 "Hg10 mi
1:53 pm67 °FSunny.No wind37%29.91 "Hg10 mi
12:53 pm65 °FSunny.5 mph40%29.92 "Hg10 mi
11:53 am64 °FSunny.No wind38%29.96 "Hg10 mi
10:53 am63 °FSunny.3 mph40%29.99 "Hg10 mi
Weather by CustomWeather, © 2016

See weather overviewHow to use our weather pages